Location: Mentone
(34.5413°N, 85.5351°W)
Time: 06:13:01
(UTC-05:00)

Centaur AC-72 - Visible Passes

Search period start: 24 June 2018 00:00
Search period end: 04 July 2018 00:00
Orbit: 1142 x 35214 km, 19.1° (Epoch: 23 June)

Date Brightness Start Highest point End Pass type
(mag) Time Alt. Az. Time Alt. Az. Time Alt. Az.
25 Jun 7.9 04:50:38 10° W 06:07:29 28° WSW 09:21:20 10° WSW visible
26 Jun 7.1 01:41:16 10° W 02:45:40 56° SSW 11:11:25 10° SSW visible
26 Jun 6.4 22:46:43 10° WSW 23:05:36 60° S 08:25:38 10° SSE visible
27 Jun 5.2 19:56:14 10° SW 20:04:39 39° SSE 04:56:08 10° SE daylight
29 Jun 7.9 04:34:11 10° W 05:50:51 28° WSW 09:07:41 10° WSW visible
30 Jun 7.1 01:25:19 10° W 02:27:16 56° SSW 10:57:36 10° SSW visible
30 Jun 6.4 22:30:53 10° WSW 22:49:09 59° S 08:09:22 10° SSE visible
01 Jul 5.1 19:40:25 10° SW 19:48:37 39° SSE 20:34:49 10° E daylight
03 Jul 7.9 04:17:45 10° W 05:34:15 28° WSW 08:54:03 10° WSW visible
